Location: Anciles
(42.5833°N, 0.5167°E)
Time: 02:52:51
(UTC+00:00)

Lacrosse 5 - Pass Details

Date: 10 December 2019
Orbit: 717 x 722 km, 57.0° (Epoch: 10 January)

Event Time Altitude Azimuth Distance (km) Brightness Sun altitude
Rises 19:18:41 0° 209° (SSW) 3,109 5.6 -31.2°
Reaches altitude 10° 19:21:06 10° 204° (SSW) 2,192 4.6 -31.6°
Enters shadow 19:22:23 18° 199° (SSW) 1,729 4.0 -31.8°
